Satellite: NOAA-14
Catalog number: 23455
Epoch time: 08296.72770738
Element set: 0358
Inclination: 098.9345 deg
RA of node: 008.9670 deg
Eccentricity: 0.0010039
Arg of perigee: 140.4060 deg
Mean anomaly: 219.7841 deg
Mean motion: 14.13749672 rev/day
Decay rate: -2.31e-06 rev/day^2
Epoch rev: 71237
Checksum: 315
Satellite: NOAA-15
Catalog number: 25338
Epoch time: 08296.61269444
Element set: 0670
Inclination: 098.5668 deg
RA of node: 285.3041 deg
Eccentricity: 0.0011281
Arg of perigee: 034.5207 deg
Mean anomaly: 325.6700 deg
Mean motion: 14.24728336 rev/day
Decay rate: -1.11e-06 rev/day^2
Epoch rev: 54294
Checksum: 301
Satellite: RESURS
Catalog number: 25394
Epoch time: 08297.67842981
Element set: 52
Inclination: 098.3705 deg
RA of node: 335.6895 deg
Eccentricity: 0.0001382
Arg of perigee: 146.8876 deg
Mean anomaly: 213.2389 deg
Mean motion: 14.24173588 rev/day
Decay rate: -2.0e-08 rev/day^2
Epoch rev: 53473
Checksum: 333
Satellite: FENGYUN1
Catalog number: 25730
Epoch time: 08296.92075760
Element set: 0598
Inclination: 098.7353 deg
RA of node: 268.4513 deg
Eccentricity: 0.0020231
Arg of perigee: 162.9564 deg
Mean anomaly: 197.2290 deg
Mean motion: 14.07818816 rev/day
Decay rate: 5.47e-06 rev/day^2
Epoch rev: 48693
Checksum: 335
Satellite: OKEAN-0
Catalog number: 25860
Epoch time: 08297.52558888
Element set: 505
Inclination: 097.7630 deg
RA of node: 282.4808 deg
Eccentricity: 0.0000694
Arg of perigee: 097.6912 deg
Mean anomaly: 262.4382 deg
Mean motion: 14.73540794 rev/day
Decay rate: 2.2e-07 rev/day^2
Epoch rev: 49829
Checksum: 341
Satellite: NOAA-16
Catalog number: 26536
Epoch time: 08296.64091952
Element set: 0144
Inclination: 099.1687 deg
RA of node: 288.6830 deg
Eccentricity: 0.0009854
Arg of perigee: 225.7159 deg
Mean anomaly: 134.3204 deg
Mean motion: 14.12498191 rev/day
Decay rate: -2.88e-06 rev/day^2
Epoch rev: 41676
Checksum: 341
Satellite: NOAA-17
Catalog number: 27453
Epoch time: 08296.72362974
Element set: 0145
Inclination: 098.5195 deg
RA of node: 357.5637 deg
Eccentricity: 0.0012768
Arg of perigee: 097.1978 deg
Mean anomaly: 263.0665 deg
Mean motion: 14.24010918 rev/day
Decay rate: -3.1e-07 rev/day^2
Epoch rev: 32895
Checksum: 343
Satellite: NOAA-18
Catalog number: 28654
Epoch time: 08296.74694766
Element set: 0632
Inclination: 098.8790 deg
RA of node: 236.1643 deg
Eccentricity: 0.0013880
Arg of perigee: 316.4758 deg
Mean anomaly: 043.5283 deg
Mean motion: 14.11203952 rev/day
Decay rate: 3.93e-06 rev/day^2
Epoch rev: 17646
Checksum: 341
/EX
SB KEPS @ AMSAT $ORB08297.M
Orbital Elements 08297.MISC
HR AMSAT ORBITAL ELEMENTS FOR MANNED AND MISCELLANEOUS SATELLITES
FROM WA5QGD FORT WORTH,TX October 23, 2008
Send Subscribe/unsubscribe to KEPS at
http://www.amsat.org/mailman/listinfo/keps
BID: ORB08297.M
TO ALL RADIO AMATEURS BT
Satellite: HUBBLE
Catalog number: 20580
Epoch time: 08296.92533654
Element set: 0248
Inclination: 028.4695 deg
RA of node: 210.0651 deg
Eccentricity: 0.0003591
Arg of perigee: 296.7058 deg
Mean anomaly: 063.3162 deg
Mean motion: 15.00420172 rev/day
Decay rate: 4.03e-06 rev/day^2
Epoch rev: 81418
Checksum: 276
Satellite: PO-34
Catalog number: 25520
Epoch time: 08296.67566415
Element set: 0117
Inclination: 028.4589 deg
RA of node: 045.2155 deg
Eccentricity: 0.0005780
Arg of perigee: 231.7835 deg
Mean anomaly: 128.2235 deg
Mean motion: 15.17245403 rev/day
Decay rate: 4.15e-06 rev/day^2
Epoch rev: 55254
Checksum: 298
Satellite: ISS
Catalog number: 25544
Epoch time: 08297.83084929
Element set: 502
Inclination: 051.6421 deg
RA of node: 076.8556 deg
Eccentricity: 0.0003245
Arg of perigee: 262.6192 deg
Mean anomaly: 232.9102 deg
Mean motion: 15.72427686 rev/day
Decay rate: 9.745e-05 rev/day^2
Epoch rev: 56877
Checksum: 327
Satellite: CO-58
Catalog number: 28895
Epoch time: 08296.34633734
Element set: 0150
Inclination: 098.0804 deg
RA of node: 187.2416 deg
Eccentricity: 0.0018475
Arg of perigee: 015.1944 deg
Mean anomaly: 344.9818 deg
Mean motion: 14.59707391 rev/day
Decay rate: 2.14e-06 rev/day^2
Epoch rev: 15903
Checksum: 334
Satellite: FALCON
Catalog number: 30776
Epoch time: 08297.77645523
Element set: 423
Inclination: 035.4331 deg
RA of node: 093.5788 deg
Eccentricity: 0.0001682
Arg of perigee: 358.2587 deg
Mean anomaly: 001.8119 deg
Mean motion: 15.03081947 rev/day
Decay rate: 4.01e-06 rev/day^2
Epoch rev: 8950
Checksum: 305
Satellite: MAST
Catalog number: 31126
Epoch time: 08296.60075202
Element set: 443
Inclination: 098.0234 deg
RA of node: 355.8447 deg
Eccentricity: 0.0093945
Arg of perigee: 297.4746 deg
Mean anomaly: 061.6942 deg
Mean motion: 14.53452313 rev/day
Decay rate: 7.4e-07 rev/day^2
Epoch rev: 8052
Checksum: 297
Satellite: CAPE1
Catalog number: 31130
Epoch time: 08297.64388850
Element set: 436
Inclination: 098.0244 deg
RA of node: 355.5608 deg
Eccentricity: 0.0101766
Arg of perigee: 298.0117 deg
Mean anomaly: 061.0802 deg
Mean motion: 14.51999683 rev/day
Decay rate: -6.9e-07 rev/day^2
Epoch rev: 8036
Checksum: 313
Satellite: COMPASS
Catalog number: 32787
Epoch time: 08297.71883598
Element set: 181
Inclination: 097.9753 deg
RA of node: 357.1453 deg
Eccentricity: 0.0017028
Arg of perigee: 081.4199 deg
Mean anomaly: 278.8927 deg
Mean motion: 14.81480980 rev/day
Decay rate: 9.3e-07 rev/day^2
Epoch rev: 2643
Checksum: 353
Satellite: AAUSAT2
Catalog number: 32788
Epoch time: 08296.89520045
Element set: 0181
Inclination: 097.9763 deg
RA of node: 356.3498 deg
Eccentricity: 0.0017003
Arg of perigee: 085.2486 deg
Mean anomaly: 275.0636 deg
Mean motion: 14.81593254 rev/day
Decay rate: 1.21e-06 rev/day^2
Epoch rev: 02631
Checksum: 317
Satellite: DO-64
Catalog number: 32789
Epoch time: 08296.84116879
Element set: 0198
Inclination: 097.9774 deg
RA of node: 356.3398 deg
Eccentricity: 0.0016893
Arg of perigee: 083.6551 deg
Mean anomaly: 276.6577 deg
Mean motion: 14.81505052 rev/day
Decay rate: 2.65e-06 rev/day^2
Epoch rev: 02630
Checksum: 366
Satellite: CO-66
Catalog number: 32791
Epoch time: 08297.80360672
Element set: 176
Inclination: 097.9777 deg
RA of node: 357.2518 deg
Eccentricity: 0.0017367
Arg of perigee: 079.0063 deg
Mean anomaly: 281.3104 deg
Mean motion: 14.81332024 rev/day
Decay rate: 3.06e-06 rev/day^2
Epoch rev: 2641
Checksum: 311
Satellite: RS-30
Catalog number: 32953
Epoch time: 08297.38886356
Element set: 139
Inclination: 082.5037 deg
RA of node: 043.8560 deg
Eccentricity: 0.0018519
Arg of perigee: 338.2496 deg
Mean anomaly: 021.7797 deg
Mean motion: 12.42997857 rev/day
Decay rate: 1.0e-07 rev/day^2
Epoch rev: 1897
Checksum: 345
/EX
More information about the Keps
mailing list